OK2MD-6 Weather Reports


Display with metric or nautical units.
time (UTC)temp
F
wind
direction
speed
MPH
gust
MPH
rain 1hr
in
rain 24hr
in
rain mn
in
humidity
%
barometer
mb
20260507012003 58 302 5.0 11.0 0.00 0.00 0.00 82 1007.6
20260507010024 58 275 5.0 9.0 0.00 0.00 0.00 81 1007.2
20260507004003 58 267 2.0 6.0 0.00 0.00 0.00 81 1006.7
20260507002004 58 267 3.0 8.0 0.00 0.00 0.00 80 1006.9
20260507000005 59 265 3.0 7.0 0.00 0.00 0.00 80 1006.7
20260506234003 59 247 3.0 7.0 0.00 0.00 0.00 80 1006.6
20260506232025 59 197 1.0 3.0 0.00 0.00 0.00 78 1006.1
20260506230003 59 191 0.0 1.0 0.00 0.00 0.00 76 1005.9
20260506224024 60 189 1.0 6.0 0.00 0.00 0.00 74 1005.8
20260506222004 61 186 0.0 1.0 0.00 0.00 0.00 73 1005.7
20260506220005 61 182 1.0 4.0 0.00 0.00 0.00 72 1005.5
20260506214003 61 181 0.0 2.0 0.00 0.00 0.00 74 1005.3
20260506212005 62 180 1.0 4.0 0.00 0.00 0.00 72 1004.9
20260506210024 62 178 1.0 5.0 0.00 0.00 0.00 71 1004.8
20260506204003 63 184 2.0 6.0 0.00 0.00 0.00 71 1004.8
20260506202003 64 185 2.0 6.0 0.00 0.00 0.00 69 1004.8
20260506200005 64 181 2.0 9.0 0.00 0.00 0.00 66 1004.5
20260506194005 65 168 3.0 9.0 0.00 0.00 0.00 65 1004.4
20260506192026 66 168 3.0 10.0 0.00 0.00 0.00 64 1004.4
20260506190004 67 185 3.0 11.0 0.00 0.00 0.00 62 1004.3
20260506184003 67 169 3.0 9.0 0.00 0.00 0.00 60 1004.3
20260506182003 68 180 2.0 7.0 0.00 0.00 0.00 58 1004.1
20260506180004 69 167 2.0 7.0 0.00 0.00 0.00 57 1003.7
20260506174024 70 162 3.0 12.0 0.00 0.00 0.00 55 1003.6
20260506172003 71 162 2.0 10.0 0.00 0.00 0.00 54 1003.8
20260506170005 72 162 4.0 14.0 0.00 0.00 0.00 52 1004.0
20260506164004 72 168 5.0 17.0 0.00 0.00 0.00 51 1004.0
20260506162003 74 183 4.0 10.0 0.00 0.00 0.00 49 1004.2
20260506160004 74 165 6.0 13.0 0.00 0.00 0.00 47 1004.4
20260506154003 75 173 5.0 12.0 0.00 0.00 0.00 45 1004.6
20260506152005 75 165 5.0 13.0 0.00 0.00 0.00 47 1005.0
20260506150005 74 170 5.0 10.0 0.00 0.00 0.00 49 1005.1
20260506144003 75 168 5.0 13.0 0.00 0.00 0.00 48 1005.4
20260506142005 75 165 5.0 18.0 0.00 0.00 0.00 49 1005.5
20260506140026 74 178 5.0 13.0 0.00 0.00 0.00 49 1005.9
20260506134005 75 181 6.0 13.0 0.00 0.00 0.00 49 1005.9
20260506132005 74 177 6.0 14.0 0.00 0.00 0.00 52 1006.1
20260506130025 74 169 5.0 14.0 0.00 0.00 0.00 50 1006.4
20260506124004 73 175 5.0 13.0 0.00 0.00 0.00 52 1006.5
20260506122003 73 162 5.0 15.0 0.00 0.00 0.00 49 1006.8
20260506120004 73 195 4.0 10.0 0.00 0.00 0.00 50 1006.8
20260506114003 73 177 3.0 10.0 0.00 0.00 0.00 48 1007.0
20260506112003 74 194 4.0 9.0 0.00 0.00 0.00 47 1007.2
20260506110004 73 185 3.0 10.0 0.00 0.00 0.00 52 1007.4
20260506104005 74 190 4.0 9.0 0.00 0.00 0.00 48 1007.6
20260506102025 73 202 3.0 10.0 0.00 0.00 0.00 52 1007.6
20260506100003 72 179 4.0 11.0 0.00 0.00 0.00 52 1007.7
20260506094003 72 183 3.0 10.0 0.00 0.00 0.00 53 1007.7
20260506092003 71 227 2.0 7.0 0.00 0.00 0.00 55 1007.8
20260506090003 70 196 3.0 9.0 0.00 0.00 0.00 57 1007.9
20260506084024 69 220 2.0 6.0 0.00 0.00 0.00 60 1007.8
20260506082003 68 191 3.0 9.0 0.00 0.00 0.00 61 1008.0
20260506072003 66 191 2.0 8.0 0.00 0.00 0.00 70 1008.0
20260506062005 61 250 1.0 5.0 0.00 0.00 0.00 79 1008.1
20260506044004 50 0 0.0 0.0 0.00 0.00 0.00 92 1007.4
20260506042003 49 0 0.0 0.0 0.00 0.00 0.00 91 1007.3
20260506040024 49 0 0.0 0.0 0.00 0.00 0.00 89 1007.1
20260506034024 49 0 0.0 0.0 0.00 0.00 0.00 89 1007.0
20260506032005 50 0 0.0 0.0 0.00 0.00 0.00 87 1006.9
20260506030003 51 0 0.0 0.0 0.00 0.00 0.00 86 1006.8
20260506024024 51 143 0.0 1.0 0.00 0.00 0.00 85 1006.6
20260506022003 52 0 0.0 0.0 0.00 0.00 0.00 87 1006.7
20260506020005 52 0 0.0 0.0 0.00 0.00 0.00 85 1006.6
20260506014024 53 143 0.0 1.0 0.00 0.00 0.00 84 1006.5